星链-34479 (STARLINK-34479)

导读

STARLINK-34479是由美国于2025年6月13日发射的星链卫星,隶属于SpaceX公司的星链星座项目。星链项目旨在构建全球卫星互联网星座,为全球偏远地区、海洋空域等提供高速低延迟的宽带网络服务,该卫星入轨后将助力星链网络覆盖范围与服务能力进一步拓展。

基本信息
目录编号:
64365
目录名称:
STARLINK-34479
国际标识:
2025-126X
轨道中心:
EARTH
卫星名称:
星链-34479
卫星全名:
星链-34479 (STARLINK-34479)
卫星状态:
在轨 (已飞行448 天)
发射日期:
2025-06-13 UTC
国别 :
美国 (US)
星等 :
--
轨道信息
数据来源 国际轨道数据
星历时间: 2026-09-04T06:00:02+0800
8小时前
查看轨道信息
半长轴: 6855.29km
偏心率: 0.0002932
轨道倾角: 70.000°
近地点辐角 273.593°
升交点赤经 304.731°
平近点角 218.493°
近地点: 475.143km
远地点: 479.163km
周期: 94.145分钟
每日圈数: 15.295514
详细信息
固有亮度:
5
最大亮度:
2.5
卫星平台:
Starlink V1.0
覆盖范围:
全球
运营商:
太空探索技术公司
运营商所在国:
美国
制造商(研发单位):
太空探索技术公司
制造商所在国:
美国
使用方式:
暂无
卫星简介
Starlink 计划是 SpaceX 推出的全球卫星互联网项目,通过发射低轨道卫星,为全球尤其是偏远地区提供高速、低延迟的互联网服务。自 2019 年起,Starlink 已部署数千颗卫星,旨在缩小全球数字鸿沟,推动互联网普及。该项目还为军事、航空等行业提供通信支持,带来广泛经济效益。
2D轨道图
3D轨道图
轨道高度分析图
轨道倾角分析图
轨道综合分析图
查看轨道综合分析图
交会数据列表
事件ID 空间交会对象 最接近时刻(TCA) 交会距离 交会风险概率(CRP) 交会风险指数(CRI) 操作
CDM_260904-072706-436506-786421
2026-09-04T
07:27:47+0000
0.731 km
远距离
6.900243E-5 中风险 0.72
CDM_260904-060306-436506-606521
2026-09-04T
06:03:54+0000
1.731 km
极远距离
4.000726E-6 低风险 0.47
CDM_260904-043006-436506-606521
2026-09-04T
04:30:04+0000
1.787 km
极远距离
3.641241E-6 低风险 0.46
CDM_260901-070606-436506-629721
SEMI-1N (66297)
2026-09-01T
07:06:16+0000
1.788 km
极远距离
3.236507E-6 低风险 0.45
CDM_260903-162704-867406-436521
2026-09-03T
16:27:16+0000
1.981 km
极远距离
1.860123E-6 低风险 0.4
CDM_260830-145905-233206-436521
2026-08-30T
14:59:29+0000
2.461 km
极远距离
1.695825E-6 低风险 0.4
CDM_260904-002505-237406-436521
2026-09-04T
00:25:55+0000
2.638 km
极远距离
1.487279E-6 低风险 0.38
CDM_260830-110105-233206-436521
2026-08-30T
11:01:47+0000
2.719 km
极远距离
1.436522E-6 低风险 0.38
CDM_260904-072805-237406-436521
2026-09-04T
07:28:12+0000
2.721 km
极远距离
1.418433E-6 低风险 0.38
CDM_260904-055306-436506-786421
2026-09-04T
05:53:58+0000
2.816 km
极远距离
1.346399E-6 低风险 0.38